This is the latest recevied weather packets stored in our database for station/object KO6LQJ. If no packets are shown the sender has not sent any weather packets the latest 1 day(s).
| Time | Temp. | Humidity | Pressure | Rain* | Wind** | Luminosity | Snow |
|---|---|---|---|---|---|---|---|
| 1778023886 | 19.44° C | 49% | 1015.6 hPa | 0 mm | 0 m/s | 92 W/m² | - |
| 1778023583 | 19.44° C | 47% | 1015.9 hPa | 0 mm | 0 m/s | 105 W/m² | - |
| 1778023281 | 19.44° C | 46% | 1015.8 hPa | 0 mm | 0 m/s | 139 W/m² | - |
| 1778022977 | 19.44° C | 45% | 1015.8 hPa | 0 mm | 1.34 m/s, 126° | 189 W/m² | - |
| 1778022676 | 19.44° C | 44% | 1015.9 hPa | 0 mm | 0.89 m/s, 193° | 167 W/m² | - |
| 1778022374 | 20° C | 44% | 1015.7 hPa | 0 mm | 0 m/s | 196 W/m² | - |
| 1778022069 | 19.44° C | 45% | 1016 hPa | 0 mm | 0 m/s | 204 W/m² | - |
| 1778021766 | 20° C | 44% | 1015.8 hPa | 0 mm | 0 m/s | 192 W/m² | - |
| 1778021462 | 19.44° C | 44% | 1016 hPa | 0 mm | 0 m/s | 183 W/m² | - |
| 1778021159 | 18.89° C | 46% | 1015.9 hPa | 0 mm | 0 m/s | 193 W/m² | - |
| 1778020857 | 18.89° C | 45% | 1016.1 hPa | 0 mm | 0 m/s | 154 W/m² | - |
| 1778020554 | 18.89° C | 46% | 1016.3 hPa | 0 mm | 0 m/s | 131 W/m² | - |
| 1778020250 | 18.89° C | 45% | 1016 hPa | 0 mm | 0 m/s | 127 W/m² | - |
| 1778019946 | 18.89° C | 45% | 1016.4 hPa | 0 mm | 0 m/s | 124 W/m² | - |
| 1778019643 | 18.89° C | 44% | 1016.3 hPa | 0 mm | 0 m/s | 126 W/m² | - |
| 1778019340 | 18.89° C | 45% | 1016.4 hPa | 0 mm | 0 m/s | 129 W/m² | - |
| 1778019036 | 18.89° C | 43% | 1016.2 hPa | 0 mm | 0 m/s | 129 W/m² | - |
| 1778018733 | 18.89° C | 44% | 1016.2 hPa | 0 mm | 0 m/s | 115 W/m² | - |
| 1778018431 | 18.89° C | 43% | 1016.3 hPa | 0 mm | 0 m/s | 110 W/m² | - |
| 1778018129 | 19.44° C | 44% | 1016.3 hPa | 0 mm | 0.45 m/s, 116° | 139 W/m² | - |
| 1778017827 | 19.44° C | 45% | 1016.1 hPa | 0 mm | 0 m/s | 121 W/m² | - |
| 1778017525 | 18.89° C | 45% | 1016.2 hPa | 0 mm | 0 m/s | 110 W/m² | - |
| 1778017221 | 19.44° C | 44% | 1016.3 hPa | 0 mm | 0 m/s | 144 W/m² | - |
| 1778016919 | 19.44° C | 42% | 1016.3 hPa | 0 mm | 0.45 m/s, 49° | 149 W/m² | - |
| 1778016615 | 19.44° C | 44% | 1016.3 hPa | 0 mm | 0.45 m/s, 239° | 308 W/m² | - |
* Rain latest hour (hover to see other rain measurements)
** Current wind speed in m/s (hover to see current wind gust speed)